CAPE
0 0 0 0 0 0 0 0 0 0 0 0 0 0 0 0 0 0 0 0 0 0 0 0 0 0 0 0 0 0 0 0
0 0 0 0 0 0 0 0 0 0 0 0 0 0 0 0 0 0 0 0 0 0 0 0 0 0 0 0 0 0 0 0
0 0 0 0 0 0 0 0 0 0 0 0 0 0 0 0 0 0 0 0 0 0 0 0 0 0 0 0 0 0 0 0
0 0 0 0 0 0 0 0 0 0 0 0 0 0 0 0 0 0 0 0 0 0 0 0 0 0 0 0 0 0 0 0
0 0 0 0 0 0 0 0 0 0 0 0 0 0 0 0 0 0 0 0 0 0 0 0 0 0 0 0 0 0 0 0
0 0 0 0 0 0 0 0 0 0 0 0 0 0 0 0 0 0 0 0 0 0 0 0 0 0 0 0 0 0 0 0
0 0 0 0 0 0 0 0 0 0 0 0 0 0 0 0 0 0 0 0 0 0 0 0 0 0 0 0 0 0 0 0
0 0 0 0 0 0 0 0 0 0 0 0 0 0 0 0 0 0 0 0 0 0 0 0 0 0 0 0 0 0 0 0
0 0 0 0 0 0 0 0 0 0 0 0 0 0 0 0 0 0 0 0 0 0 0 0 0 0 0 0 0 0 0 0
0 0 0 0 0 0 0 0 0 0 0 0 0 0 0 0 0 0 0 0 0 0 0 0 0 0 0 0 0 0 0 0
0 0 0 0 0 0 0 0 0 0 0 0 0 0 0 0 0 0 0 0 0 0 0 0 0 0 0 0 0 0 0 0
0 0 0 0 0 0 0 0 0 0 0 0 0 0 0 0 0 0 0 3 0 0 0 0 0 0 4 5 0 0 0 0
0 0 0 0 0 0 0 0 0 0 0 0 0 0 0 0 0 0 0 2 1 2 2 3 4 10 8 12 11 6 0 0
0 0 0 0 0 0 0 0 0 0 0 0 0 0 0 0 0 0 0 0 1 9 7 7 15 14 23 27 27 17 1 0
0 0 0 0 0 0 0 0 0 0 0 0 0 0 0 0 0 0 0 0 2 1 0 0 0 0 1 8 3 6 4 13
0 0 0 0 0 0 0 0 0 0 0 0 0 0 0 0 0 0 0 1 0 0 0 0 1 2 23 27 6 0 1 9
0 0 0 0 0 0 0 0 0 0 0 0 0 0 0 0 0 6 15 28 36 47 36 9 60 75 75 85 79 89 81 28
0 0 0 0 0 0 0 0 0 0 0 0 0 0 0 0 0 0 0 13 17 21 28 40 45 58 62 67 76 79 83 28
0 0 0 0 0 0 0 0 0 0 0 0 0 0 0 0 0 0 0 0 0 0 7 14 37 46 44 50 58 8 7 1
0 0 0 0 0 0 0 0 0 0 0 0 0 0 0 0 0 0 0 0 0 0 0 1 5 15 15 16 0 0 0 0
CIN
-0 -0 -0 -0 -0 -0 -0 -0 -0 -0 -0 -0 -0 -0 -0 -0 -0 -0 -0 -0 -0 -0 -0 -0 -0 -0 -0 -0 -0 -0 -0 -0
-0 -0 -0 -0 -0 -0 -0 -0 -0 -0 -0 -0 -0 -0 -0 -0 -0 -0 -0 -0 -0 -0 -0 -0 -0 -0 -0 -0 -0 -0 -0 -0
-0 -0 -0 -0 -0 -0 -0 -0 -0 -0 -0 -0 -0 -0 -0 -0 -0 -0 -0 -0 -0 -0 -0 -0 -0 -0 -0 -0 -0 -0 -0 -0
-0 -0 -0 -0 -0 -0 -0 -0 -0 -0 -0 -0 -0 -0 -0 -0 -0 -0 -0 -0 -0 -0 -0 -0 -0 -0 -0 -0 -0 -0 -0 -0
-0 -0 -0 -0 -0 -0 -0 -0 -0 -0 -0 -0 -0 -0 -0 -0 -0 -0 -0 -0 -0 -0 -0 -0 -0 -0 -0 -0 -0 -0 -0 -0
-0 -0 -0 -0 -0 -0 -0 -0 -0 -0 -0 -0 -0 -0 -0 -0 -0 -0 -0 -0 -0 -0 -0 -0 -0 -0 -0 -0 -0 -0 -0 -0
-0 -0 -0 -0 -0 -0 -0 -0 -0 -0 -0 -0 -0 -0 -0 -0 -0 -0 -0 -0 -0 -0 -0 -0 -0 -0 -0 -0 -0 -0 -0 -0
-0 -0 -0 -0 -0 -0 -0 -0 -0 -0 -0 -0 -0 -0 -0 -0 -0 -0 -0 -0 -0 -0 -0 -0 -0 -0 -0 -0 -0 -0 -0 -0
-0 -0 -0 -0 -0 -0 -0 -0 -0 -0 -0 -0 -0 -0 -0 -0 -0 -0 -0 -0 -0 -0 -0 -0 -0 -0 -0 -0 -0 -0 -0 -0
-0 -0 -0 -0 -0 -0 -0 -0 -0 -0 -0 -0 -0 -0 -0 -0 -0 -0 -0 -0 -0 -0 -0 -0 -0 -0 -0 -0 -0 -0 -0 -0
-0 -0 -0 -0 -0 -0 -0 -0 -0 -0 -0 -0 -0 -0 -0 -0 -0 -0 -0 -0 -0 -0 -0 -0 -0 -0 -0 -0 -0 -0 -0 -0
-0 -0 -0 -0 -0 -0 -0 -0 -0 -0 -0 -0 -0 -0 -0 -0 -0 -0 -0 -0 -0 -0 -0 -0 -0 -0 -0 -0 -0 -0 -0 -0
-0 -0 -0 -0 -0 -0 -0 -0 -0 -0 -0 -0 -0 -0 -0 -0 -0 -0 -1 -0 -1 -0 -1 -0 -0 -0 -0 -0 -0 -0 -1 -0
-0 -0 -0 -0 -0 -0 -0 -0 -0 -0 -0 -0 -0 -0 -0 -0 -0 -0 -0 -1 -1 -0 -0 -0 -0 -0 -0 -0 -0 -0 -1 -0
-0 -0 -0 -0 -0 -0 -0 -0 -0 -0 -0 -0 -0 -0 -0 -0 -0 -0 -0 -0 -0 -0 -0 -0 -0 -0 -0 -0 -0 -0 -0 -0
-0 -0 -0 -0 -0 -0 -0 -0 -0 -0 -0 -0 -0 -0 -0 -0 -0 -0 -0 -0 -0 -0 -0 -2 -1 -1 -0 -2 -0 -0 -0 -0
-0 -0 -0 -0 -0 -0 -0 -0 -0 -0 -0 -0 -0 -0 -0 -0 -0 -0 -0 -0 -0 -0 -0 -0 -0 -0 -0 -0 -0 -0 -0 -0
-0 -0 -0 -0 -0 -0 -0 -0 -0 -0 -0 -0 -0 -0 -0 -0 -0 -0 -0 -0 -0 -0 -0 -0 -0 -0 -0 -0 -0 -0 -0 -1
-0 -0 -0 -0 -0 -0 -0 -0 -0 -0 -0 -0 -0 -0 -0 -0 -0 -0 -0 -0 -0 -0 -0 -0 -0 -0 -0 -0 -0 -3 -0 -2
-0 -0 -0 -0 -0 -0 -0 -0 -0 -0 -0 -0 -0 -0 -0 -0 -0 -0 -0 -0 -0 -0 -0 -0 -0 -0 -0 -0 -0 -0 -0 -0
Wind_Speed
6 5 4 4 4 6 5 5 5 5 5 7 8 7 6 7 8 9 9 10 9 8 7 8 7 6 6 5 5 7 5 5
4 4 4 4 5 4 5 6 6 7 5 5 5 6 8 7 7 7 7 9 8 7 8 7 7 7 6 7 7 7 7 7
4 4 4 3 3 3 2 4 4 4 5 6 5 7 6 7 7 7 7 8 9 9 6 7 7 6 7 8 6 7 9 9
3 3 3 2 4 4 4 4 3 4 5 5 5 5 5 5 6 8 8 7 6 7 8 10 8 6 7 8 7 8 10 11
2 3 4 4 5 5 6 5 5 5 5 6 6 5 5 5 5 6 7 7 7 7 7 7 7 8 9 8 8 10 11 11
2 1 4 3 3 3 4 5 4 4 5 6 6 6 6 7 6 7 6 7 6 8 8 7 7 7 8 9 8 9 11 11
5 4 5 5 5 5 5 6 3 5 7 8 8 8 6 5 6 6 7 7 7 10 8 10 9 16 20 17 11 11 12 12
5 6 5 4 2 4 5 4 3 4 6 7 7 8 11 9 9 11 10 9 11 11 10 13 13 21 24 22 12 12 13 14
4 5 4 0 2 4 4 4 4 6 7 7 7 9 9 9 10 13 11 13 13 14 14 14 14 25 26 26 15 14 15 15
3 2 4 4 4 3 3 4 5 7 8 7 6 10 12 14 15 15 13 14 15 15 18 16 17 28 28 25 16 16 18 16
4 3 5 5 6 3 5 5 8 9 9 9 10 12 15 16 17 15 15 17 15 19 18 20 21 31 34 29 14 18 15 17
6 5 5 6 5 6 7 8 6 8 10 12 13 13 14 16 15 16 17 18 19 20 20 21 21 24 35 36 19 16 16 15
5 4 5 5 5 8 9 9 9 10 11 12 12 11 12 15 15 16 16 18 19 19 19 16 18 26 30 35 35 31 19 19
3 5 4 3 2 9 11 11 12 12 12 12 12 12 12 13 14 13 13 13 14 14 15 15 13 14 30 34 35 35 24 18
3 3 5 3 5 4 10 11 11 13 13 13 13 14 12 10 11 11 12 13 13 14 15 15 14 14 13 14 15 26 19 22
2 4 7 7 8 6 9 9 11 13 13 13 11 13 13 12 11 12 13 15 15 14 15 15 14 13 25 25 15 13 19 21
2 5 7 7 8 9 6 6 11 13 11 11 12 12 12 13 13 22 29 32 33 35 29 17 30 38 37 36 35 34 34 18
4 5 8 9 10 8 8 7 10 12 14 12 13 12 12 12 13 15 16 30 32 33 34 34 33 35 34 34 33 32 29 16
4 5 6 8 11 10 6 9 11 13 17 12 11 11 12 12 14 13 15 15 15 23 27 30 33 32 31 30 26 13 14 12
5 7 6 6 11 7 9 11 13 12 10 10 10 11 13 12 13 13 14 15 15 15 21 21 27 28 30 28 12 11 10 11
Wind_Direction
67 63 69 57 59 53 66 39 22 19 19 19 15 6 358 28 14 4 350 349 343 337 333 327 315 276 264 256 239 232 236 231
114 99 72 57 57 53 54 56 15 360 5 37 24 358 6 13 357 356 345 343 338 335 330 321 313 300 282 259 249 245 241 236
53 80 61 19 42 69 52 73 54 2 336 17 21 11 11 3 344 337 340 338 334 335 333 318 313 304 291 276 256 246 249 244
160 143 111 50 12 9 8 40 39 14 354 351 4 1 344 346 333 326 326 325 322 320 322 324 318 305 286 275 266 252 250 245
320 27 10 32 12 357 354 3 358 355 346 331 334 321 306 300 291 298 303 298 302 301 294 296 293 297 289 278 274 267 262 252
170 322 298 296 300 326 327 337 339 338 324 305 301 295 295 291 285 280 285 282 280 295 292 283 278 276 281 279 266 263 267 258
176 223 253 257 264 273 288 292 306 321 313 311 312 314 295 263 269 282 285 286 284 285 273 285 285 289 292 288 278 271 267 268
252 228 229 230 279 283 280 292 282 272 280 279 279 283 289 288 291 296 295 291 290 287 281 280 278 283 287 283 276 269 265 263
320 311 277 95 6 343 341 320 292 280 273 271 274 274 279 276 275 286 293 295 293 289 285 284 279 279 280 281 276 268 262 259
262 327 39 25 28 8 319 281 285 287 291 294 297 299 298 293 290 287 287 285 286 285 287 282 280 283 283 282 279 269 264 258
304 52 47 31 30 4 315 312 302 306 314 317 313 305 301 298 297 297 291 286 284 282 280 281 281 281 284 284 275 269 262 259
44 41 37 30 23 331 313 305 317 329 315 311 311 309 303 299 297 296 292 289 284 282 281 279 276 280 282 282 276 267 267 260
29 23 15 17 350 319 312 321 321 313 311 308 303 298 296 293 293 290 289 285 284 283 281 278 278 276 281 283 279 275 266 258
39 336 347 1 353 318 318 321 317 313 306 301 297 295 291 291 292 290 286 283 284 284 286 288 289 287 289 292 292 285 280 273
22 326 308 313 324 298 312 315 311 306 304 304 302 300 293 286 286 288 287 284 284 284 281 279 278 278 280 280 286 292 299 293
342 306 306 320 314 310 308 309 305 304 303 302 300 300 298 289 287 283 278 278 280 275 277 282 280 276 277 276 269 263 274 284
291 298 302 307 304 302 295 294 298 301 305 305 302 297 296 295 290 285 290 293 292 292 290 286 286 292 291 287 283 278 274 268
301 302 304 304 299 298 294 286 296 297 302 300 298 296 295 295 295 296 292 293 294 294 293 292 292 293 291 287 284 279 272 260
288 282 280 285 289 292 287 295 300 301 297 295 294 293 293 293 294 295 297 299 297 296 295 293 294 298 297 294 290 278 269 268
283 278 276 282 289 292 304 305 307 301 295 294 294 294 294 296 297 297 297 296 295 295 296 297 296 295 294 293 285 269 250 247